THORAD AGENA D DEB, 42499

Orbit data source: Space-Track

THORAD AGENA D DEB, 42499 is space debris in SSO originally from a launch on Wed, 08 Apr 1970 UTC launched from the Air Force Western Test Range (AFWTR). Debris objects in space refer to the collection of defunct objects orbiting the Earth. Examples of debris include non-operational satellites, rocket bodies, and fragments generated from explosions, collisions, or faulty payload assembly.

Loading next visibility...
Identifier
42499, 1970-025RD
Orbit
SSO
Country
Flag of USUS
Related business
Manufacturer
Unknown
Mission
Spacecraft
Bus & Motor
Unknown
Mass
Unknown
Launch date (UTC)
1970-04-08 (56 years ago)
Launch vehicle
Unknown
Launch site
Air Force Western Test Range (AFWTR)
Object type
Payload
Rocket body
Debris
Shape & HBR
Unknown shape, 0.1 m
Radar Cross Section
Small (<0.1 m²)

Expand to show TLE details & history
Last TLE update: 17 hours ago

TLE from 17 hours ago
0 THORAD AGENA D DEB
1 42499U 70025RD  25310.41323266  .00001353  00000-0  13669-2 0  9999
2 42499 100.0998 202.3257 0008335  44.5631 315.6188 13.79273211600633
Epoch: 2025-11-06T09:55Z
TLE epoch observation values (Epoch: 2025-11-06T09:55:03.301Z)
Latitude
0.00004°
Longitude
7.69003°
Altitude
964.904 km
Speed
7.371 km/s
True Right ascension
13h 29m 18s
True Declination
0° 00' 00"
Sunlit
Object was in daylight at epoch
Visualization orbit readout
Latitude
Unknown
Longitude
Unknown
Altitude
Unknown
Speed
Unknown
Apparent Right ascension
Unknown
Apparent Declination
Unknown
Sunlit
N/A
Visualization observer readout
Local Sidereal Time
23:10:33
Azimuth
Unknown
Elevation
Unknown
Doppler factor
Unknown
Orbital elements
Apogee altitude
969.869 km
Perigee altitude
957.63 km
Semi-major axis
7,341.886 km
Eccentricity
0.00083
Inclination
100.0998°
RAAN
202.3257°
Arg. of periapsis
44.5631°
True anomaly
315.55195°
Mean anomaly
315.6188°
Eccentric anomaly
315.58538°
Mean motion
3.4501 °/min
Orbital period
104.34 mins
BSTAR
0.0013669

Documentation

Showing up to 5 results
|